Regional Weather Roundup
Issued by NWS Little Rock, AR

Home | Current Version | Previous Version | Graphics & Text | Print | Product List | Glossary On
Versions: 1 2 3 4 5 6 7 8 9 10 11 12 13 14 15 16 17 18 19 20 21 22 23 24 25 26 27 28 29 30 31 32
000
ASUS44 KLZK 270005
RWRLZK

WEATHER ROUNDUP FOR ARKANSAS
NATIONAL WEATHER SERVICE LITTLE ROCK AR
700 PM CDT WED APR 26 2017

NOTE: "FAIR" INDICATES FEW OR NO CLOUDS BELOW 12,000 FEET WITH NO
SIGNIFICANT WEATHER AND/OR OBSTRUCTIONS TO VISIBILITY.

ARZ001-003-010-029-270100-
NORTHWEST ARKANSAS

CITY           SKY/WX    TMP DP  RH WIND       PRES   REMARKS
FAYETTEVILLE   CLOUDY    45  45 100 NW13      29.61S FOG
6HR MIN TEMP:  45; 6HR MAX TEMP:  52; 6HR PCP:  0.02;

FORT SMITH     CLOUDY    51  45  79 NW14      29.62R
6HR MIN TEMP:  51; 6HR MAX TEMP:  58; 6HR PCP:  0.03;

HARRISON       CLOUDY    47  46  97 NW15G25   29.55R
6HR MIN TEMP:  47; 6HR MAX TEMP:  58; 6HR PCP:  0.19;

BENTONVILLE    CLOUDY    45  43  93 NW9       29.61F
6HR MIN TEMP:  45; 6HR MAX TEMP:  48; 6HR PCP:  0.04;

ROGERS         LGT RAIN  45  44  97 NW9       29.61F FOG
6HR MIN TEMP:  45; 6HR MAX TEMP:  49;

SILOAM SPGS    CLOUDY    45  39  81 NW13      29.63R
6HR MIN TEMP:  45; 6HR MAX TEMP:  48; 6HR PCP:  0.04;

HIGHFILL       CLOUDY    46  44  93 NW12      29.61S
6HR MIN TEMP:  46; 6HR MAX TEMP:  49; 6HR PCP:  0.08;

SPRINGDALE     CLOUDY    45  45 100 NW12G17   29.61S FOG
$$

ARZ004-005-016-270100-
NORTH CENTRAL ARKANSAS

CITY           SKY/WX    TMP DP  RH WIND       PRES   REMARKS
BATESVILLE     CLOUDY   N/A N/A N/A E8        29.45F
                                      6HR PCP:  2.14;

FLIPPIN        CLOUDY   N/A N/A N/A NW9       29.48F
                                      6HR PCP:  0.68;

MTN HOME       LGT RAIN  50  50 100 VRB7      29.51R FOG
6HR MIN TEMP:  50; 6HR MAX TEMP:  57; 6HR PCP:  0.85;

$$

ARZ040-041-270100-
WEST CENTRAL ARKANSAS

CITY           SKY/WX    TMP DP  RH WIND       PRES   REMARKS
MENA           CLOUDY    52  52 100 W12       29.61R
MOUNT IDA      CLOUDY    54  51  90 NW9G20    29.55R
6HR MIN TEMP:  54; 6HR MAX TEMP:  63; 6HR PCP:  0.35;

$$

ARZ009-017-025-026-028-270100-
NORTHEAST ARKANSAS

CITY           SKY/WX    TMP DP  RH WIND       PRES   REMARKS
JONESBORO      RAIN      58  56  93 SE7       29.48S
6HR MIN TEMP:  58; 6HR MAX TEMP:  77;

NEWPORT        TSTM      61  60  97 SE8       29.49S FOG
6HR MIN TEMP:  60; 6HR MAX TEMP:  76;

WALNUT RIDGE   CLOUDY    61  57  88 E8        29.48R THUNDER
6HR MIN TEMP:  59; 6HR MAX TEMP:  73; 6HR PCP:  2.20;

BLYTHEVILLE    LGT RAIN  56  56 100 N9        29.53F
6HR MIN TEMP:  56; 6HR MAX TEMP:  79; 6HR PCP:  0.31;

$$

ARZ022-023-033-042-044-270100-
CENTRAL ARKANSAS

CITY           SKY/WX    TMP DP  RH WIND       PRES   REMARKS
LITTLE ROCK    TSTM      60  60 100 S8        29.49R FOG
6HR MIN TEMP:  60; 6HR MAX TEMP:  72; 6HR PCP:  1.66;

N LITTLE ROCK    N/A     60  59  96 S5        29.49R
6HR MIN TEMP:  60; 6HR MAX TEMP:  71;

JACKSONVILLE   LGT RAIN  62  62 100 S5        29.47R
6HR MIN TEMP:  62; 6HR MAX TEMP:  73; 6HR PCP:  1.80;

CONWAY           N/A     59  59 100 W15G22    29.50R FOG
SEARCY         TSTM      61  61 100 SE9       29.49S FOG
6HR MIN TEMP:  61; 6HR MAX TEMP:  72; 6HR PCP:  1.87;

HOT SPRINGS    CLOUDY    58  57  97 W8        29.54R
6HR MIN TEMP:  58; 6HR MAX TEMP:  63; 6HR PCP:  1.53;

RUSSELLVILLE   LGT RAIN  54  53  97 W14G20    29.53R FOG
6HR MIN TEMP:  54; 6HR MAX TEMP:  61; 6HR PCP:  0.42;

CLINTON          N/A     61  61 100 CALM      29.48R FOG
$$

ARZ036-270100-
EAST ARKANSAS

CITY           SKY/WX    TMP DP  RH WIND       PRES   REMARKS
WEST MEMPHIS   CLOUDY    63  59  87 NW9G23    29.53R
6HR MIN TEMP:  63; 6HR MAX TEMP:  80; 6HR PCP: TRACE;

$$

ARZ050-053-066-070-073-270100-
SOUTHWEST ARKANSAS

CITY           SKY/WX    TMP DP  RH WIND       PRES   REMARKS
ARKADELPHIA    LGT RAIN  61  60  97 NW8       29.54R
6HR MIN TEMP:  61; 6HR MAX TEMP:  75;

CAMDEN         LGT RAIN  63  59  88 SW5       29.54R
TEXARKANA      LGT RAIN  55  54  96 NW16G26   29.63R
6HR MIN TEMP:  56; 6HR MAX TEMP:  76; 6HR PCP:  0.65;

EL DORADO        N/A    N/A N/A N/A MISG      29.56R
DE QUEEN       CLOUDY    54  51  90 NW9       29.61R
6HR MIN TEMP:  54; 6HR MAX TEMP:  65; 6HR PCP:  0.01;

$$

ARZ056-057-069-270100-
SOUTHEAST ARKANSAS

CITY           SKY/WX    TMP DP  RH WIND       PRES   REMARKS
PINE BLUFF     TSTM      60  59  96 S7        29.52R
6HR MIN TEMP:  59; 6HR MAX TEMP:  76; 6HR PCP:  1.67;

STUTTGART      CLOUDY    61  52  72 E6        29.50S THUNDER
6HR MIN TEMP:  61; 6HR MAX TEMP:  79; 6HR PCP:  1.44;

MONTICELLO     TSTM      63  62  97 VRB3      29.50F FOG
6HR MIN TEMP:  63; 6HR MAX TEMP:  81; 6HR PCP:  1.24;


$$






USA.gov is the U.S. government's official web portal to all federal, state and local government web resources and services.